Tracking 31027 objects as of 19-Jul-2025
HD Live streaming from Space Station
objects crossing your sky now

FENGYUN 1C DEB

Track FENGYUN 1C DEB now!
10-day predictions


NORAD ID: 30633
Int'l Code: 1999-025ANQ
Perigee: 792.2 km
Apogee: 982.9 km
Inclination: 98.4 °
Period: 102.6 minutes
Semi major axis: 7258 km
RCS: 0.025 m2 (small)
Launch date: May 10, 1999
Source: People's Republic of China (PRC)
Launch site: Taiyaun Space Center, China (TSC)

Note: This is SATELLITE DEBRIS
Your satellite tracking list
THORAD DELTA 1 DEB
Track 1 satellite(s)




NASA's NSSDC Master Catalog

Two Line Element Set (TLE):
1 30633U 99025ANQ 25199.59001803  .00001232  00000-0  74750-3 0  9996
2 30633  98.4376  75.1363 0131323 316.8767  71.2399 14.03872450939770
Source of the keplerian elements: AFSPC